Change the Weather History Date:

Friday, October 4, 2013

  Actual Average Record
Temperature  
Mean Temperature 53 °F 56 °F  
Max Temperature 64 °F 64 °F 76 °F (1966)
Min Temperature 42 °F 48 °F 38 °F (1957)
Degree Days  
Heating Degree Days 12 9  
Month to date heating degree days 49 34  
Since 1 July heating degree days 160 251  
Cooling Degree Days 0 0  
Month to date cooling degree days 0 0  
Year to date cooling degree days 385 189  
Growing Degree Days 3 (Base 50)    
Moisture  
Dew Point 43 °F    
Average Humidity 67    
Maximum Humidity 86    
Minimum Humidity 48    
Precipitation  
Precipitation 0.00 in 0.07 in 0.92 in (1950)
Month to date precipitation 0.55 0.28  
Year to date precipitation 26.12 22.37  
Snow  
Snow 0.00 in - - ()
Month to date snowfall 0.0  
Since 1 July snowfall 0.0  
Snow Depth 0.00 in    
Sea Level Pressure  
Sea Level Pressure 30.46 in    
Wind  
Wind Speed 3 mph (SE)    
Max Wind Speed 9 mph    
Max Gust Speed 16 mph    
Visibility 10 miles    
Events      
T = Trace of Precipitation, MM = Missing Value Source: NWS Daily Summary

Daily Weather History Graph

Daily Weather History Graph

Search for Another Location

Airport or City:

Trip Planner

Search our weather history database for the weather conditions in past years. The results will help you decide how hot, cold, wet, or windy it might be!

Date:

Astronomy

Oct. 04, 2013 Rise Set
Actual Time 7:12 AM PDT 6:41 PM PDT
Civil Twilight 6:42 AM PDT 7:12 PM PDT
Nautical Twilight 6:06 AM PDT 7:48 PM PDT
Astronomical Twilight 5:30 AM PDT 8:24 PM PDT
Moon 6:55 AM PDT (10/4) 6:24 PM PDT (10/4)
Length of Visible Light 12h 30m
Length of Day
11h 29m
Waning Crescent, 0% of the Moon is Illuminated
Oct 4
Waning Crescent
Oct 4
New
Oct 11
First Quarter
Oct 18
Full
Oct 26
Last Quarter

Hourly Weather History & Observations

Time (PDT) Temp. Windchill Dew Point Humidity Pressure Visibility Wind Dir Wind Speed Gust Speed Precip Events Conditions
12:53 AM 48.0 °F - 43.0 °F 83% 30.48 in 10.0 mi ESE 3.5 mph - N/A   Clear
1:53 AM 46.0 °F 44.8 °F 43.0 °F 89% 30.49 in 10.0 mi SE 3.5 mph - N/A   Clear
2:53 AM 46.0 °F 42.5 °F 41.0 °F 83% 30.49 in 10.0 mi ESE 6.9 mph - N/A   Clear
3:53 AM 45.0 °F 42.6 °F 39.9 °F 82% 30.49 in 10.0 mi ESE 4.6 mph - N/A   Clear
4:53 AM 44.1 °F 42.5 °F 39.9 °F 85% 30.49 in 10.0 mi SE 3.5 mph - N/A   Clear
5:53 AM 44.1 °F 42.5 °F 39.9 °F 85% 30.50 in 10.0 mi ESE 3.5 mph - N/A   Clear
6:53 AM 45.0 °F 41.8 °F 39.0 °F 80% 30.50 in 10.0 mi SE 5.8 mph - N/A   Partly Cloudy
7:53 AM 45.0 °F - 39.9 °F 82% 30.51 in 10.0 mi Calm Calm - N/A   Mostly Cloudy
8:53 AM 48.0 °F - 39.9 °F 74% 30.51 in 10.0 mi Calm Calm - N/A   Mostly Cloudy
9:53 AM 50.0 °F - 42.1 °F 74% 30.51 in 10.0 mi Calm Calm - N/A   Scattered Clouds
10:53 AM 54.0 °F - 43.0 °F 66% 30.50 in 10.0 mi Calm Calm - N/A   Scattered Clouds
11:53 AM 55.9 °F - 45.0 °F 67% 30.50 in 10.0 mi West 4.6 mph - N/A   Mostly Cloudy
12:53 PM 55.9 °F - 45.0 °F 67% 30.49 in 10.0 mi West 6.9 mph - N/A   Scattered Clouds
1:53 PM 60.1 °F - 46.0 °F 60% 30.46 in 10.0 mi NW 3.5 mph - N/A   Mostly Cloudy
2:53 PM 62.1 °F - 44.1 °F 52% 30.45 in 10.0 mi WNW 3.5 mph - N/A   Mostly Cloudy
3:53 PM 63.0 °F - 44.1 °F 50% 30.43 in 10.0 mi West 3.5 mph - N/A   Mostly Cloudy
4:53 PM 63.0 °F - 45.0 °F 52% 30.42 in 10.0 mi Calm Calm - N/A   Mostly Cloudy
5:53 PM 63.0 °F - 43.0 °F 48% 30.41 in 10.0 mi Calm Calm - N/A   Mostly Cloudy
6:53 PM 60.1 °F - 46.0 °F 60% 30.42 in 10.0 mi Calm Calm - N/A   Mostly Cloudy
7:53 PM 57.9 °F - 44.1 °F 60% 30.40 in 10.0 mi SE 3.5 mph - N/A   Mostly Cloudy
8:53 PM 57.0 °F - 42.1 °F 57% 30.41 in 10.0 mi Calm Calm - N/A   Scattered Clouds
9:53 PM 55.0 °F - 42.1 °F 62% 30.41 in 10.0 mi Calm Calm - N/A   Scattered Clouds
10:53 PM 53.1 °F - 45.0 °F 74% 30.40 in 10.0 mi ESE 3.5 mph - N/A   Partly Cloudy
11:53 PM 51.1 °F - 45.0 °F 80% 30.38 in 10.0 mi SE 4.6 mph - N/A   Clear